Time,TemperatureF,DewpointF,PressureIn,WindDirection,WindDirectionDegrees,WindSpeedMPH,WindSpeedGustMPH,Humidity,HourlyPrecipIn,Conditions,Clouds,dailyrainin,SolarRadiationWatts/m^2,SoftwareType,DateUTC
2013-03-05 00:01:00,34.0,32.0,-100.00,WSW,248,2.0,2.0,92,0.00,,,0.54,0.800000,,2013-03-05 09:01:00,
2013-03-05 00:11:00,34.0,32.0,-100.00,WSW,248,2.0,2.0,92,0.00,,,0.54,0.800000,,2013-03-05 09:11:00,
2013-03-05 00:21:00,34.0,32.0,-100.00,WSW,248,2.0,2.0,92,0.00,,,0.54,0.800000,,2013-03-05 09:21:00,
2013-03-05 00:52:00,34.0,33.0,-100.00,ESE,112,3.0,3.0,96,0.00,,,0.50,0.800000,,2013-03-05 09:52:00,
2013-03-05 01:01:00,34.0,33.0,-100.00,ESE,112,3.0,3.0,96,0.00,,,0.50,0.800000,,2013-03-05 10:01:00,
2013-03-05 01:11:00,34.0,33.0,-100.00,ESE,112,3.0,3.0,96,0.00,,,0.50,0.800000,,2013-03-05 10:11:00,
2013-03-05 01:21:00,34.0,33.0,-100.00,ESE,112,3.0,3.0,96,0.00,,,0.50,0.800000,,2013-03-05 10:21:00,
2013-03-05 01:52:00,33.0,32.0,-100.00,WNW,297,1.0,4.0,94,0.00,,,0.48,0.800000,,2013-03-05 10:52:00,
2013-03-05 02:01:00,33.0,32.0,-100.00,WNW,297,1.0,4.0,94,0.00,,,0.48,0.800000,,2013-03-05 11:01:00,
2013-03-05 02:11:00,33.0,32.0,-100.00,WNW,297,1.0,4.0,94,0.00,,,0.48,0.800000,,2013-03-05 11:11:00,
2013-03-05 02:21:00,33.0,32.0,-100.00,WNW,297,1.0,4.0,94,0.00,,,0.48,0.800000,,2013-03-05 11:21:00,
2013-03-05 02:52:00,34.0,31.0,-100.00,West,259,3.0,3.0,90,0.00,,,0.46,0.800000,,2013-03-05 11:52:00,
2013-03-05 03:02:00,34.0,31.0,-100.00,West,259,3.0,3.0,90,0.00,,,0.46,0.800000,,2013-03-05 12:02:00,
2013-03-05 03:11:00,34.0,31.0,-100.00,West,259,3.0,3.0,90,0.00,,,0.46,0.800000,,2013-03-05 12:11:00,
2013-03-05 03:22:00,34.0,31.0,-100.00,West,259,3.0,3.0,90,0.00,,,0.46,0.800000,,2013-03-05 12:22:00,
2013-03-05 03:52:00,34.0,32.0,-100.00,NNE,17,2.0,4.0,92,0.00,,,0.42,0.800000,,2013-03-05 12:52:00,
2013-03-05 04:02:00,34.0,32.0,-100.00,NNE,17,2.0,4.0,92,0.00,,,0.42,0.800000,,2013-03-05 13:02:00,
2013-03-05 04:11:00,34.0,32.0,-100.00,NNE,17,2.0,4.0,92,0.00,,,0.42,0.800000,,2013-03-05 13:11:00,
2013-03-05 04:21:00,34.0,32.0,-100.00,NNE,17,2.0,4.0,92,0.00,,,0.42,0.800000,,2013-03-05 13:21:00,
2013-03-05 04:52:00,33.0,30.0,-100.00,NNW,333,2.0,6.0,88,0.00,,,0.38,0.800000,,2013-03-05 13:52:00,
2013-03-05 05:02:00,33.0,30.0,-100.00,NNW,333,2.0,6.0,88,0.00,,,0.38,0.800000,,2013-03-05 14:02:00,
2013-03-05 05:11:00,33.0,30.0,-100.00,NNW,333,2.0,6.0,88,0.00,,,0.38,0.800000,,2013-03-05 14:11:00,
2013-03-05 05:21:00,33.0,30.0,-100.00,NNW,333,2.0,6.0,88,0.00,,,0.38,0.800000,,2013-03-05 14:21:00,
2013-03-05 05:52:00,33.0,30.0,-100.00,WSW,240,2.0,5.0,87,0.00,,,0.34,0.800000,,2013-03-05 14:52:00,
2013-03-05 06:01:00,33.0,30.0,-100.00,WSW,240,2.0,5.0,87,0.00,,,0.34,0.800000,,2013-03-05 15:01:00,
2013-03-05 06:11:00,33.0,30.0,-100.00,WSW,240,2.0,5.0,87,0.00,,,0.34,0.800000,,2013-03-05 15:11:00,
2013-03-05 06:21:00,33.0,30.0,-100.00,WSW,240,2.0,5.0,87,0.00,,,0.34,0.800000,,2013-03-05 15:21:00,
2013-03-05 06:52:00,33.0,30.0,-100.00,NW,307,1.0,3.0,90,0.00,,,0.29,0.800000,,2013-03-05 15:52:00,
2013-03-05 07:01:00,33.0,30.0,-100.00,NW,307,1.0,3.0,90,0.00,,,0.29,0.800000,,2013-03-05 16:01:00,
2013-03-05 07:11:00,33.0,30.0,-100.00,NW,307,1.0,3.0,90,0.00,,,0.29,0.800000,,2013-03-05 16:11:00,
2013-03-05 07:21:00,33.0,30.0,-100.00,NW,307,1.0,3.0,90,0.00,,,0.29,0.800000,,2013-03-05 16:21:00,
2013-03-05 07:52:00,33.0,29.0,-100.00,WSW,247,4.0,4.0,85,0.00,,,0.24,0.800000,,2013-03-05 16:52:00,
2013-03-05 08:01:00,33.0,29.0,-100.00,WSW,247,4.0,4.0,85,0.00,,,0.24,0.800000,,2013-03-05 17:01:00,
2013-03-05 08:11:00,33.0,29.0,-100.00,WSW,247,4.0,4.0,85,0.00,,,0.24,0.800000,,2013-03-05 17:11:00,
2013-03-05 08:21:00,33.0,29.0,-100.00,WSW,247,4.0,4.0,85,0.00,,,0.24,0.800000,,2013-03-05 17:21:00,
2013-03-05 08:52:00,33.0,30.0,-100.00,ENE,68,2.0,5.0,87,0.00,,,0.19,10.200000,,2013-03-05 17:52:00,
2013-03-05 09:01:00,33.0,30.0,-100.00,ENE,68,2.0,5.0,87,0.00,,,0.19,10.200000,,2013-03-05 18:01:00,
2013-03-05 09:11:00,33.0,30.0,-100.00,ENE,68,2.0,5.0,87,0.00,,,0.19,10.200000,,2013-03-05 18:11:00,
2013-03-05 09:21:00,33.0,30.0,-100.00,ENE,68,2.0,5.0,87,0.00,,,0.19,10.200000,,2013-03-05 18:21:00,
2013-03-05 09:53:00,35.0,30.0,-100.00,NE,48,3.0,6.0,82,0.00,,,0.15,100.800003,,2013-03-05 18:53:00,
2013-03-05 10:01:00,35.0,30.0,-100.00,NE,48,3.0,6.0,82,0.00,,,0.15,100.800003,,2013-03-05 19:01:00,
2013-03-05 10:11:00,35.0,30.0,-100.00,NE,48,3.0,6.0,82,0.00,,,0.15,100.800003,,2013-03-05 19:11:00,
2013-03-05 10:21:00,35.0,30.0,-100.00,NE,48,3.0,6.0,82,0.00,,,0.15,100.800003,,2013-03-05 19:21:00,
2013-03-05 10:52:00,35.0,30.0,-100.00,NE,45,3.0,6.0,81,0.00,,,0.10,176.399994,,2013-03-05 19:52:00,
2013-03-05 11:01:00,35.0,30.0,-100.00,NE,45,3.0,6.0,81,0.00,,,0.10,176.399994,,2013-03-05 20:01:00,
2013-03-05 11:11:00,35.0,30.0,-100.00,NE,45,3.0,6.0,81,0.00,,,0.10,176.399994,,2013-03-05 20:11:00,
2013-03-05 11:21:00,35.0,30.0,-100.00,NE,45,3.0,6.0,81,0.00,,,0.10,176.399994,,2013-03-05 20:21:00,
2013-03-05 11:52:00,38.0,30.0,-100.00,NNW,328,3.0,4.0,73,0.00,,,0.06,371.299988,,2013-03-05 20:52:00,
2013-03-05 12:01:00,38.0,30.0,-100.00,NNW,328,3.0,4.0,73,0.00,,,0.06,371.299988,,2013-03-05 21:01:00,
2013-03-05 12:11:00,38.0,30.0,-100.00,NNW,328,3.0,4.0,73,0.00,,,0.06,371.299988,,2013-03-05 21:11:00,
2013-03-05 12:21:00,38.0,30.0,-100.00,NNW,328,3.0,4.0,73,0.00,,,0.06,371.299988,,2013-03-05 21:21:00,
2013-03-05 12:52:00,41.0,32.0,-100.00,NE,54,1.0,3.0,71,0.00,,,0.04,391.899994,,2013-03-05 21:52:00,
2013-03-05 13:01:00,41.0,32.0,-100.00,NE,54,1.0,3.0,71,0.00,,,0.04,391.899994,,2013-03-05 22:01:00,
2013-03-05 13:11:00,41.0,32.0,-100.00,NE,54,1.0,3.0,71,0.00,,,0.04,391.899994,,2013-03-05 22:11:00,
2013-03-05 13:21:00,41.0,32.0,-100.00,NE,54,1.0,3.0,71,0.00,,,0.04,391.899994,,2013-03-05 22:21:00,
2013-03-05 13:52:00,38.0,30.0,-100.00,NE,43,3.0,4.0,73,0.00,,,0.03,419.299988,,2013-03-05 22:52:00,
2013-03-05 14:01:00,38.0,30.0,-100.00,NE,43,3.0,4.0,73,0.00,,,0.03,419.299988,,2013-03-05 23:01:00,
2013-03-05 14:11:00,38.0,30.0,-100.00,NE,43,3.0,4.0,73,0.00,,,0.03,419.299988,,2013-03-05 23:11:00,
2013-03-05 14:21:00,38.0,30.0,-100.00,NE,43,3.0,4.0,73,0.00,,,0.03,419.299988,,2013-03-05 23:21:00,
2013-03-05 14:52:00,43.0,31.0,-100.00,NNE,18,1.0,5.0,62,0.00,,,0.02,346.799988,,2013-03-05 23:52:00,
2013-03-05 15:01:00,43.0,31.0,-100.00,NNE,18,1.0,5.0,62,0.00,,,0.02,346.799988,,2013-03-06 00:01:00,
2013-03-05 15:11:00,43.0,31.0,-100.00,NNE,18,1.0,5.0,62,0.00,,,0.02,346.799988,,2013-03-06 00:11:00,
2013-03-05 15:21:00,43.0,31.0,-100.00,NNE,18,1.0,5.0,62,0.00,,,0.02,346.799988,,2013-03-06 00:21:00,
2013-03-05 15:52:00,36.0,29.0,-100.00,NNE,30,3.0,5.0,77,0.00,,,0.01,326.500000,,2013-03-06 00:52:00,
2013-03-05 16:01:00,36.0,29.0,-100.00,NNE,30,3.0,5.0,77,0.00,,,0.01,326.500000,,2013-03-06 01:01:00,
2013-03-05 16:11:00,36.0,29.0,-100.00,NNE,30,3.0,5.0,77,0.00,,,0.01,326.500000,,2013-03-06 01:11:00,
2013-03-05 16:21:00,36.0,29.0,-100.00,NNE,30,3.0,5.0,77,0.00,,,0.01,326.500000,,2013-03-06 01:21:00,
2013-03-05 16:52:00,35.0,28.0,-100.00,North,5,4.0,5.0,76,0.00,,,0.00,161.199997,,2013-03-06 01:52:00,
2013-03-05 17:01:00,35.0,28.0,-100.00,North,5,4.0,5.0,76,0.00,,,0.00,161.199997,,2013-03-06 02:01:00,
2013-03-05 17:11:00,35.0,28.0,-100.00,North,5,4.0,5.0,76,0.00,,,0.00,161.199997,,2013-03-06 02:11:00,
2013-03-05 17:21:00,35.0,28.0,-100.00,North,5,4.0,5.0,76,0.00,,,0.00,161.199997,,2013-03-06 02:21:00,
2013-03-05 17:52:00,33.0,27.0,-100.00,NW,325,4.0,6.0,79,0.00,,,0.00,117.400002,,2013-03-06 02:52:00,
2013-03-05 18:01:00,33.0,27.0,-100.00,NW,325,4.0,6.0,79,0.00,,,0.00,117.400002,,2013-03-06 03:01:00,
2013-03-05 18:11:00,33.0,27.0,-100.00,NW,325,4.0,6.0,79,0.00,,,0.00,117.400002,,2013-03-06 03:11:00,
2013-03-05 18:21:00,33.0,27.0,-100.00,NW,325,4.0,6.0,79,0.00,,,0.00,117.400002,,2013-03-06 03:21:00,
2013-03-05 18:52:00,32.0,27.0,-100.00,West,277,3.0,6.0,81,0.00,,,0.00,38.599998,,2013-03-06 03:52:00,
2013-03-05 19:01:00,32.0,27.0,-100.00,West,277,3.0,6.0,81,0.00,,,0.00,38.599998,,2013-03-06 04:01:00,
2013-03-05 19:11:00,32.0,27.0,-100.00,West,277,3.0,6.0,81,0.00,,,0.00,38.599998,,2013-03-06 04:11:00,
2013-03-05 19:21:00,32.0,27.0,-100.00,West,277,3.0,6.0,81,0.00,,,0.00,38.599998,,2013-03-06 04:21:00,
2013-03-05 19:52:00,32.0,27.0,-100.00,NNW,342,3.0,4.0,82,0.00,,,0.00,2.200000,,2013-03-06 04:52:00,
2013-03-05 20:01:00,32.0,27.0,-100.00,NNW,342,3.0,4.0,82,0.00,,,0.00,2.200000,,2013-03-06 05:01:00,
2013-03-05 20:11:00,32.0,27.0,-100.00,NNW,342,3.0,4.0,82,0.00,,,0.00,2.200000,,2013-03-06 05:11:00,
2013-03-05 20:22:00,32.0,27.0,-100.00,NNW,342,3.0,4.0,82,0.00,,,0.00,2.200000,,2013-03-06 05:22:00,
2013-03-05 20:52:00,31.0,26.0,-100.00,West,278,3.0,4.0,80,0.00,,,0.00,0.800000,,2013-03-06 05:52:00,
2013-03-05 21:01:00,31.0,26.0,-100.00,West,278,3.0,4.0,80,0.00,,,0.00,0.800000,,2013-03-06 06:01:00,
2013-03-05 21:11:00,31.0,26.0,-100.00,West,278,3.0,4.0,80,0.00,,,0.00,0.800000,,2013-03-06 06:11:00,
2013-03-05 21:22:00,31.0,26.0,-100.00,West,278,3.0,4.0,80,0.00,,,0.00,0.800000,,2013-03-06 06:22:00,
2013-03-05 21:52:00,31.0,26.0,-100.00,NNW,340,3.0,4.0,79,0.00,,,0.00,0.800000,,2013-03-06 06:52:00,
2013-03-05 22:01:00,31.0,26.0,-100.00,NNW,340,3.0,4.0,79,0.00,,,0.00,0.800000,,2013-03-06 07:01:00,
2013-03-05 22:11:00,31.0,26.0,-100.00,NNW,340,3.0,4.0,79,0.00,,,0.00,0.800000,,2013-03-06 07:11:00,
2013-03-05 22:21:00,31.0,26.0,-100.00,NNW,340,3.0,4.0,79,0.00,,,0.00,0.800000,,2013-03-06 07:21:00,
2013-03-05 22:52:00,31.0,26.0,-100.00,West,269,2.0,4.0,82,0.00,,,0.00,0.800000,,2013-03-06 07:52:00,
2013-03-05 23:01:00,31.0,26.0,-100.00,West,269,2.0,4.0,82,0.00,,,0.00,0.800000,,2013-03-06 08:01:00,
2013-03-05 23:11:00,31.0,26.0,-100.00,West,269,2.0,4.0,82,0.00,,,0.00,0.800000,,2013-03-06 08:11:00,
2013-03-05 23:21:00,31.0,26.0,-100.00,West,269,2.0,4.0,82,0.00,,,0.00,0.800000,,2013-03-06 08:21:00,
2013-03-05 23:52:00,32.0,27.0,-100.00,NW,305,2.0,6.0,82,0.00,,,0.00,0.800000,,2013-03-06 08:52:00,